"Pseudo-MPEC" for C44QTM1

Created 2025 Apr 19 21:31:03 UT using Find_Orb

Click here for an explanation of pseudo-MPECs

 
 Astrometry: 
     C44QTM1*1C2025 04 15.39971914 40 55.952+44 28 10.24   ~4FAH 18.56GVNEOCP703
     C44QTM1 1C2025 04 15.40201914 40 54.577+44 26 34.26   ~4FAH 18.12GVNEOCP703
     C44QTM1 1C2025 04 15.40432014 40 53.130+44 24 56.56   ~4FAH 18.25GVNEOCP703
     C44QTM1 1C2025 04 15.40661814 40 51.751+44 23 18.35   ~4FAH 18.23GVNEOCP703
     C44QTM1 mC2025 04 15.42906614 40 38.672+44 06 04.79   ~4FAl 18.17GVNEOCPI52
     C44QTM1 mC2025 04 15.43131014 40 37.387+44 04 14.20   ~4FAl 18.15GVNEOCPI52
     C44QTM1 mC2025 04 15.43146914 40 37.290+44 04 06.31   ~4FAl 18.07GVNEOCPI52
     C44QTM1 mC2025 04 15.43162714 40 37.196+44 03 58.68   ~4FAl 18.28GVNEOCPI52
     C44QTM1 1C2025 04 15.45584514 40 24.540+43 42 30.00   ~4FBV 18.10GVNEOCPG96
     C44QTM1 1C2025 04 15.46105714 40 22.120+43 37 31.50   ~4FBV 18.28GVNEOCPG96
     C44QTM1 1C2025 04 15.46627114 40 19.880+43 32 22.10   ~4FBV 18.70GVNEOCPG96
     C44QTM1 mC2025 04 15.47941414 40 14.948+43 18 41.04   ~4FC2 17.87GVNEOCPI52
     C44QTM1 mC2025 04 15.47958514 40 14.905+43 18 30.06   ~4FC2 18.03GVNEOCPI52
     C44QTM1 mC2025 04 15.47975914 40 14.826+43 18 18.94   ~4FC2 18.08GVNEOCPI52
     C44QTM1 mC2025 04 15.47994014 40 14.758+43 18 06.95   ~4FC2 17.88GVNEOCPI52
     C44QTM1 mC2025 04 15.48445814 40 13.343+43 13 09.77   ~4FCH 17.72GVNEOCPI52
     C44QTM1 mC2025 04 15.48462814 40 13.289+43 12 58.61   ~4FCH 17.93GVNEOCPI52
     C44QTM1 mC2025 04 15.48479914 40 13.256+43 12 47.02   ~4FCH 17.91GVNEOCPI52
     C44QTM1 mC2025 04 15.48497014 40 13.192+43 12 35.89   ~4FCH 17.83GVNEOCPI52
     C44QTM1 KB2025 04 15.64787014 50 43.776+39 11 56.00   ~4FGV 17.1 GWNEOCP900
     C44QTM1 KB2025 04 15.65197214 50 47.182+39 01 41.05   ~4FGV 16.8 GWNEOCP900
     C44QTM1 KB2025 04 15.65607514 50 50.650+38 51 03.92   ~4FGV 16.9 GWNEOCP900
     C44QTM1 KB2025 04 15.82498415 27 43.750+14 48 23.21   ~4IDV 14.6 GVNEOCPL34
     C44QTM1 KB2025 04 15.83258915 31 02.256+11 38 57.28   ~4IDV 14.2 GVNEOCPL34
     C44QTM1 KB2025 04 15.84422715 37 01.065+05 41 44.56   ~4IDV 14.0 GVNEOCPL34

Station data:
(703) Catalina Sky Survey  (N32.417029 W110.732640)  US/Arizona.  Observer E.
   J. Christensen.  + 10K CCD.
(900) Moriyama  (N35.049753 E135.989940)  Japan.  Observer Y. Ikari. 0.26-m
   f/7.0 reflector + CCD.
(G96) Mt. Lemmon Survey  (N32.442729 W110.788720)  US/Arizona.  Observer E.
   J. Christensen.  + 10K CCD.
(I52) Steward Observatory, Mt. Lemmon Station  (N32.442570 W110.788920)
   US/Arizona.  Observers T. A. Pruyne, B. M. Africano, E. J. Christensen, G.
   A. Farneth, D. C. Fuls, A. R. Gibbs, A. D. Grauer, H. Gröller, J. A.
   Johnson, R. A. Kowalski, S. M. Larson, G. J. Leonard, D. Rankin, R. L.
   Seaman, F. C. Shelly, K. W. Wierzchoś. 1.0-m prime focus + CCD.
(L34) Galhassin Robotic Telescope, Isnello  (N37.939358 E14.020610)  Italy.
   Observer A. Nastasi. 0.40-m reflector + CCD.

Orbital elements:  C44QTM1
   Perigee 2025 Apr 15.90028 +/- 7.79e-6 TT = 21:36:23 (JD 2460781.40028)
Epoch 2025 Apr 16.0 TT = JDT 2460781.5                           AutoNEOCP
q 37994.8728 +/- 6.6                (J2000 equator)
H   29.47 G 0.15                    Peri.  224.89157 +/- 0.0026
                                    Node    51.49762 +/- 0.0006
e   9.5965563 +/- 0.00414           Incl.   78.97187 +/- 0.0007
From 25 observations 2025 Apr. 15 (10.7 hr); mean residual 0".40
Residuals in arcseconds: 
250415 703  .24-  .48+    250415 G96  .39-  .25+    250415 I52  .25+  .16+    
250415 703  .24+  .55+    250415 G96  .23-  .23+    250415 900  .12-  .16-    
250415 703  .09-  .20+    250415 I52  .21+  .08-    250415 900  .20-  .51-    
250415 703  .23+  .48+    250415 I52  .37+  .02+    250415 900  .18-  .22-    
250415 I52  .30+  .28-    250415 I52  .14+  .18+    250415 L34  .09+  .97+    
250415 I52  .18+  .37-    250415 I52  .06+  .06-    250415 L34  .25-  .11-    
250415 I52  .10+  .38-    250415 I52  .23+  .11-    250415 L34  .32+  1.1-    
250415 I52  .05+  .17-    250415 I52  .19+  .06+    
250415 G96  .12-  1.7-    250415 I52  .39+  .12-    

Ephemerides (geocentric):
Date (UTC) HH   RA             Dec           delta  r     elong  mag " sig PA
---- --------  ------------   ------------  ------ ------ -----  --- --------
2025 04 19 22  02 49 40.153   -38 53 33.68  .02216 0.9911  52.1 26?? 17.9  14
2025 04 19 23  02 49 40.641   -38 53 02.15  .02239 0.9910  52.1 26?? 17.9  14
2025 04 20 00  02 49 41.116   -38 52 31.11  .02262 0.9908  52.1 26?? 17.9  14
2025 04 20 01  02 49 41.580   -38 52 00.53  .02284 0.9907  52.1 26?? 17.9  14
2025 04 20 02  02 49 42.032   -38 51 30.40  .02307 0.9906  52.1 26?? 17.9  14
2025 04 20 03  02 49 42.473   -38 51 00.70  .02330 0.9905  52.1 26?? 17.9  14
2025 04 20 04  02 49 42.902   -38 50 31.42  .02353 0.9903  52.1 26?? 17.9  14
2025 04 20 05  02 49 43.321   -38 50 02.54  .02376 0.9902  52.1 26?? 17.9  14
2025 04 20 06  02 49 43.729   -38 49 34.06  .02399 0.9901  52.1 26?? 17.9  14
2025 04 20 07  02 49 44.128   -38 49 05.96  .02422 .98995  52.1 26?? 17.9  14
2025 04 20 08  02 49 44.516   -38 48 38.23  .02445 .98983  52.1 26?? 17.9  14
2025 04 20 09  02 49 44.895   -38 48 10.85  .02468 .98970  52.1 26?? 17.9  14
2025 04 20 10  02 49 45.264   -38 47 43.82  .02490 .98958  52.1 26?? 17.9  14
2025 04 20 11  02 49 45.625   -38 47 17.12  .02513 .98945  52.1 26?? 17.9  14
2025 04 20 12  02 49 45.976   -38 46 50.75  .02536 .98932  52.1 26?? 17.9  14
2025 04 20 13  02 49 46.319   -38 46 24.70  .02559 .98920  52.1 26?? 17.9  14
2025 04 20 14  02 49 46.653   -38 45 58.95  .02582 .98907  52.1 26?? 17.9  14
2025 04 20 15  02 49 46.979   -38 45 33.49  .02605 .98895  52.1 26?? 17.9  14
2025 04 20 16  02 49 47.297   -38 45 08.32  .02628 .98882  52.1 26?? 17.9  14
2025 04 20 17  02 49 47.607   -38 44 43.43  .02651 .98869  52.1 27?? 17.9  14
2025 04 20 18  02 49 47.909   -38 44 18.81  .02674 .98857  52.1 27?? 17.9  14
2025 04 20 19  02 49 48.204   -38 43 54.45  .02696 .98844  52.1 27?? 17.9  14
2025 04 20 20  02 49 48.492   -38 43 30.35  .02719 .98832  52.1 27?? 17.9  14
2025 04 20 21  02 49 48.772   -38 43 06.49  .02742 .98819  52.1 27?? 17.9  14
2025 04 20 22  02 49 49.045   -38 42 42.87  .02765 .98807  52.1 27?? 17.9  14
2025 04 20 23  02 49 49.312   -38 42 19.48  .02788 .98794  52.1 27?? 17.9  14
2025 04 21 00  02 49 49.572   -38 41 56.32  .02811 .98782  52.1 27?? 17.9  14
2025 04 21 01  02 49 49.825   -38 41 33.38  .02834 .98769  52.1 27?? 17.9  14
2025 04 21 02  02 49 50.072   -38 41 10.65  .02857 .98756  52.1 27?? 17.9  14
2025 04 21 03  02 49 50.313   -38 40 48.13  .02879 .98744  52.1 27?? 17.9  14
2025 04 21 04  02 49 50.548   -38 40 25.80  .02902 .98731  52.1 27?? 17.9  14
2025 04 21 05  02 49 50.776   -38 40 03.68  .02925 .98719  52.1 27?? 17.9  14
2025 04 21 06  02 49 50.999   -38 39 41.74  .02948 .98706  52.1 27?? 17.9  14
2025 04 21 07  02 49 51.216   -38 39 19.98  .02971 .98694  52.1 27?? 17.9  14
2025 04 21 08  02 49 51.428   -38 38 58.40  .02994 .98681  52.1 27?? 17.9  14
2025 04 21 09  02 49 51.634   -38 38 37.00  .03017 .98669  52.1 27?? 17.9  14
2025 04 21 10  02 49 51.834   -38 38 15.77  .03040 .98656  52.1 27?? 17.9  14
2025 04 21 11  02 49 52.029   -38 37 54.69  .03063 .98644  52.1 27?? 17.9  14
2025 04 21 12  02 49 52.219   -38 37 33.78  .03085 .98631  52.1 27?? 18.0  14
2025 04 21 13  02 49 52.404   -38 37 13.02  .03108 .98619  52.1 27?? 18.0  14
2025 04 21 14  02 49 52.585   -38 36 52.41  .03131 .98606  52.1 27?? 18.0  14
2025 04 21 15  02 49 52.760   -38 36 31.95  .03154 .98594  52.1 27?? 18.0  14
2025 04 21 16  02 49 52.930   -38 36 11.63  .03177 .98582  52.1 27?? 18.0  14
2025 04 21 17  02 49 53.096   -38 35 51.44  .03200 .98569  52.1 27?? 18.0  14
2025 04 21 18  02 49 53.257   -38 35 31.39  .03223 .98557  52.1 27?? 18.0  14
2025 04 21 19  02 49 53.413   -38 35 11.47  .03246 .98544  52.1 27?? 18.0  14
2025 04 21 20  02 49 53.566   -38 34 51.68  .03269 .98532  52.1 27?? 18.0  14
2025 04 21 21  02 49 53.713   -38 34 32.01  .03291 .98519  52.1 27?? 18.0  14